This is the latest recevied weather packets stored in our database for station/object N8RJC-13. If no packets are shown the sender has not sent any weather packets the latest 10 day(s).
| Time | Temp. | Humidity | Pressure | Rain* | Wind** | Luminosity | Snow |
|---|---|---|---|---|---|---|---|
| 1778359161 | 23.33° C | 57% | 983.7 hPa | 0 mm | 0.89 m/s, 124° | - | - |
| 1778359101 | 23.33° C | 57% | 983.7 hPa | 0 mm | 0.89 m/s, 124° | - | - |
| 1778359041 | 23.33° C | 57% | 983.7 hPa | 0 mm | 0.89 m/s, 124° | - | - |
| 1778358980 | 23.33° C | 57% | 983.7 hPa | 0 mm | 0.89 m/s, 124° | - | - |
| 1778358921 | 22.78° C | 56% | 984 hPa | 0 mm | 0.89 m/s, 213° | - | - |
| 1778358861 | 22.78° C | 56% | 984 hPa | 0 mm | 0.89 m/s, 213° | - | - |
| 1778358800 | 22.78° C | 56% | 984 hPa | 0 mm | 0.89 m/s, 213° | - | - |
| 1778358740 | 22.78° C | 56% | 984 hPa | 0 mm | 0.89 m/s, 213° | - | - |
| 1778358681 | 22.78° C | 56% | 984 hPa | 0 mm | 0.89 m/s, 213° | - | - |
| 1778358621 | 22.78° C | 57% | 983.8 hPa | 0 mm | 1.34 m/s, 289° | - | - |
| 1778358560 | 22.78° C | 57% | 983.8 hPa | 0 mm | 1.34 m/s, 289° | - | - |
| 1778358500 | 22.78° C | 57% | 983.8 hPa | 0 mm | 1.34 m/s, 289° | - | - |
| 1778358441 | 22.78° C | 57% | 983.8 hPa | 0 mm | 1.34 m/s, 289° | - | - |
| 1778358381 | 22.78° C | 57% | 983.8 hPa | 0 mm | 1.34 m/s, 289° | - | - |
| 1778358321 | 23.33° C | 59% | 983.9 hPa | 0 mm | 1.34 m/s, 338° | - | - |
| 1778358260 | 23.33° C | 59% | 983.9 hPa | 0 mm | 1.34 m/s, 338° | - | - |
| 1778358201 | 23.33° C | 59% | 983.9 hPa | 0 mm | 1.34 m/s, 338° | - | - |
| 1778358141 | 23.33° C | 59% | 983.9 hPa | 0 mm | 1.34 m/s, 338° | - | - |
| 1778358080 | 23.33° C | 59% | 983.9 hPa | 0 mm | 1.34 m/s, 338° | - | - |
| 1778358021 | 23.33° C | 56% | 983.8 hPa | 0 mm | 0.89 m/s, 189° | - | - |
| 1778357960 | 23.33° C | 56% | 983.8 hPa | 0 mm | 0.89 m/s, 189° | - | - |
| 1778357901 | 23.33° C | 56% | 983.8 hPa | 0 mm | 0.89 m/s, 189° | - | - |
| 1778357841 | 23.33° C | 56% | 983.8 hPa | 0 mm | 0.89 m/s, 189° | - | - |
| 1778357780 | 23.33° C | 56% | 983.8 hPa | 0 mm | 0.89 m/s, 189° | - | - |
| 1778357721 | 22.78° C | 58% | 983.7 hPa | 0 mm | 0.89 m/s, 257° | - | - |
* Rain latest hour (hover to see other rain measurements)
** Current wind speed in m/s (hover to see current wind gust speed)